(°C)
27°
27°
26°
25°
24°
22°
20°
(°C)
24°
24°
23°
23°
22°
21°
19°
NNO
N
NNO
NNO
N
N
NNE
(km/h)
11-32
10-31
9-26
7-20
5-8
4-6
3-6
(mm)
0
0
1.4
0
0
0
0
(%)
32
37
42
28
24
23
19

Élévation du soleil

/ 45.2°
sun-icon
UV 7
05:28
20:53
Dernier quartier (266°)
02:28
11:55

METAR pour Innsbruck (LOWI)

Heure Conditions Température/
Point de rosée
Vent Visibilité Météo Nuages Pression Changement Brut
VFR 26°C / 13°C 70º variable 030º to 090º 7kt >10km - Scattered Clouds 8000ft 1011 No Significant change LOWI 221320Z 07007KT 030V090 9999 SCT080 26/13 Q1011 NOSIG
VFR 26°C / 12°C 80º variable 030º to 100º 6kt >10km - Scattered Clouds 8000ft 1012 No Significant change LOWI 221250Z 08006KT 030V100 9999 SCT080 26/12 Q1012 NOSIG
VFR 25°C / 12°C 60º variable 010º to 120º 5kt >10km - Scattered Clouds 8000ft 1013 No Significant change LOWI 221220Z 06005KT 010V120 9999 SCT080 25/12 Q1013 NOSIG
VFR 25°C / 11°C variable 5kt >10km - Scattered Clouds 8000ft 1013 No Significant change LOWI 221150Z VRB05KT 9999 SCT080 25/11 Q1013 NOSIG
VFR 24°C / 11°C 80º variable 030º to 110º 6kt >10km - Few Clouds 8000ft 1013 No Significant change LOWI 221120Z 08006KT 030V110 9999 FEW080 24/11 Q1013 NOSIG
VFR 23°C / 12°C 120º variable 070º to 200º 5kt >10km - Few Clouds 8000ft 1014 No Significant change LOWI 221050Z 12005KT 070V200 9999 FEW080 23/12 Q1014 NOSIG
VFR 23°C / 12°C 110º variable 070º to 200º 5kt >10km - Few Clouds 8000ft 1014 No Significant change LOWI 221020Z 11005KT 070V200 9999 FEW080 23/12 Q1014 NOSIG
VFR 22°C / 11°C variable 3kt >10km - Few Clouds 8000ft 1015 No Significant change LOWI 220950Z VRB03KT 9999 FEW080 22/11 Q1015 NOSIG
VFR 21°C / 11°C variable 3kt >10km - Few Clouds 8000ft 1016 No Significant change LOWI 220920Z VRB03KT 9999 FEW080 21/11 Q1016 NOSIG
VFR 20°C / 11°C variable 4kt >10km - Few Clouds 8000ft 1016 No Significant change LOWI 220850Z VRB04KT 9999 FEW080 20/11 Q1016 NOSIG
VFR 19°C / 11°C variable 2kt >10km - Few Clouds 8000ft 1016 No Significant change LOWI 220820Z VRB02KT 9999 FEW080 19/11 Q1016 NOSIG
VFR 18°C / 10°C variable 3kt >10km - Few Clouds 8000ft 1017 No Significant change LOWI 220750Z VRB03KT 9999 FEW080 18/10 Q1017 NOSIG
VFR 17°C / 9°C 70º variable 010º to 130º 5kt >10km - Few Clouds 8000ft 1017 No Significant change LOWI 220720Z 07005KT 010V130 9999 FEW080 17/09 Q1017 NOSIG
VFR 17°C / 9°C 100º variable 050º to 150º 3kt >10km - Few Clouds 8000ft 1018 No Significant change LOWI 220650Z 10003KT 050V150 9999 FEW080 17/09 Q1018 NOSIG
VFR 16°C / 9°C 80º variable 020º to 120º 3kt >10km - Few Clouds 8000ft 1018 No Significant change LOWI 220620Z 08003KT 020V120 9999 FEW080 16/09 Q1018 NOSIG
VFR 15°C / 10°C variable 1kt >10km - Few Clouds 8000ft 1019 No Significant change LOWI 220550Z VRB01KT 9999 FEW080 15/10 Q1019 NOSIG
VFR 15°C / 10°C variable 1kt >10km - Few Clouds 8000ft 1019 No Significant change LOWI 220520Z VRB01KT 9999 FEW080 15/10 Q1019 NOSIG
VFR 13°C / 10°C variable 1kt >10km - Few Clouds 8000ft 1018 No Significant change LOWI 220450Z VRB01KT 9999 FEW080 13/10 Q1018 NOSIG
VFR 13°C / 10°C variable 2kt >10km - Few Clouds 8000ft 1019 No Significant change LOWI 220420Z VRB02KT 9999 FEW080 13/10 Q1019 NOSIG
VFR 13°C / 10°C 140º variable 100º to 160º 3kt >10km - Few Clouds 8000ft 1019 No Significant change LOWI 220350Z 14003KT 100V160 9999 FEW080 13/10 Q1019 NOSIG
VFR 13°C / 10°C 100º 2kt >10km - Few Clouds 8000ft
Broken Clouds 9000ft
1019 - LOWI 220320Z AUTO 10002KT 9999 FEW080 BKN090 13/10 Q1019
VFR 13°C / 10°C 110º 3kt >10km - Few Clouds 8000ft 1018 - LOWI 220250Z AUTO 11003KT 9999 FEW080 13/10 Q1018
VFR 13°C / 10°C variable 1kt >10km - Few Clouds 8000ft 1019 - LOWI 220220Z AUTO VRB01KT 9999 FEW080 13/10 Q1019
VFR 14°C / 11°C variable 2kt >10km - Few Clouds 8000ft 1019 - LOWI 220150Z AUTO VRB02KT 9999 FEW080 14/11 Q1019

VFR

26°C / 13°C

[Plus]
Vent 70º variable 030º to 090º 7kt
Visibilité >10km
Météo -
Nuages Scattered Clouds 8000ft
Pression 1011
Changement No Significant change
Brut LOWI 221320Z 07007KT 030V090 9999 SCT080 26/13 Q1011 NOSIG

VFR

26°C / 12°C

[Plus]
Vent 80º variable 030º to 100º 6kt
Visibilité >10km
Météo -
Nuages Scattered Clouds 8000ft
Pression 1012
Changement No Significant change
Brut LOWI 221250Z 08006KT 030V100 9999 SCT080 26/12 Q1012 NOSIG

VFR

25°C / 12°C

[Plus]
Vent 60º variable 010º to 120º 5kt
Visibilité >10km
Météo -
Nuages Scattered Clouds 8000ft
Pression 1013
Changement No Significant change
Brut LOWI 221220Z 06005KT 010V120 9999 SCT080 25/12 Q1013 NOSIG

VFR

25°C / 11°C

[Plus]
Vent variable 5kt
Visibilité >10km
Météo -
Nuages Scattered Clouds 8000ft
Pression 1013
Changement No Significant change
Brut LOWI 221150Z VRB05KT 9999 SCT080 25/11 Q1013 NOSIG

VFR

24°C / 11°C

[Plus]
Vent 80º variable 030º to 110º 6kt
Visibilité >10km
Météo -
Nuages Few Clouds 8000ft
Pression 1013
Changement No Significant change
Brut LOWI 221120Z 08006KT 030V110 9999 FEW080 24/11 Q1013 NOSIG

VFR

23°C / 12°C

[Plus]
Vent 120º variable 070º to 200º 5kt
Visibilité >10km
Météo -
Nuages Few Clouds 8000ft
Pression 1014
Changement No Significant change
Brut LOWI 221050Z 12005KT 070V200 9999 FEW080 23/12 Q1014 NOSIG

VFR

23°C / 12°C

[Plus]
Vent 110º variable 070º to 200º 5kt
Visibilité >10km
Météo -
Nuages Few Clouds 8000ft
Pression 1014
Changement No Significant change
Brut LOWI 221020Z 11005KT 070V200 9999 FEW080 23/12 Q1014 NOSIG

VFR

22°C / 11°C

[Plus]
Vent variable 3kt
Visibilité >10km
Météo -
Nuages Few Clouds 8000ft
Pression 1015
Changement No Significant change
Brut LOWI 220950Z VRB03KT 9999 FEW080 22/11 Q1015 NOSIG

VFR

21°C / 11°C

[Plus]
Vent variable 3kt
Visibilité >10km
Météo -
Nuages Few Clouds 8000ft
Pression 1016
Changement No Significant change
Brut LOWI 220920Z VRB03KT 9999 FEW080 21/11 Q1016 NOSIG

VFR

20°C / 11°C

[Plus]
Vent variable 4kt
Visibilité >10km
Météo -
Nuages Few Clouds 8000ft
Pression 1016
Changement No Significant change
Brut LOWI 220850Z VRB04KT 9999 FEW080 20/11 Q1016 NOSIG

VFR

19°C / 11°C

[Plus]
Vent variable 2kt
Visibilité >10km
Météo -
Nuages Few Clouds 8000ft
Pression 1016
Changement No Significant change
Brut LOWI 220820Z VRB02KT 9999 FEW080 19/11 Q1016 NOSIG

VFR

18°C / 10°C

[Plus]
Vent variable 3kt
Visibilité >10km
Météo -
Nuages Few Clouds 8000ft
Pression 1017
Changement No Significant change
Brut LOWI 220750Z VRB03KT 9999 FEW080 18/10 Q1017 NOSIG

VFR

17°C / 9°C

[Plus]
Vent 70º variable 010º to 130º 5kt
Visibilité >10km
Météo -
Nuages Few Clouds 8000ft
Pression 1017
Changement No Significant change
Brut LOWI 220720Z 07005KT 010V130 9999 FEW080 17/09 Q1017 NOSIG

VFR

17°C / 9°C

[Plus]
Vent 100º variable 050º to 150º 3kt
Visibilité >10km
Météo -
Nuages Few Clouds 8000ft
Pression 1018
Changement No Significant change
Brut LOWI 220650Z 10003KT 050V150 9999 FEW080 17/09 Q1018 NOSIG

VFR

16°C / 9°C

[Plus]
Vent 80º variable 020º to 120º 3kt
Visibilité >10km
Météo -
Nuages Few Clouds 8000ft
Pression 1018
Changement No Significant change
Brut LOWI 220620Z 08003KT 020V120 9999 FEW080 16/09 Q1018 NOSIG

VFR

15°C / 10°C

[Plus]
Vent variable 1kt
Visibilité >10km
Météo -
Nuages Few Clouds 8000ft
Pression 1019
Changement No Significant change
Brut LOWI 220550Z VRB01KT 9999 FEW080 15/10 Q1019 NOSIG

VFR

15°C / 10°C

[Plus]
Vent variable 1kt
Visibilité >10km
Météo -
Nuages Few Clouds 8000ft
Pression 1019
Changement No Significant change
Brut LOWI 220520Z VRB01KT 9999 FEW080 15/10 Q1019 NOSIG

VFR

13°C / 10°C

[Plus]
Vent variable 1kt
Visibilité >10km
Météo -
Nuages Few Clouds 8000ft
Pression 1018
Changement No Significant change
Brut LOWI 220450Z VRB01KT 9999 FEW080 13/10 Q1018 NOSIG

VFR

13°C / 10°C

[Plus]
Vent variable 2kt
Visibilité >10km
Météo -
Nuages Few Clouds 8000ft
Pression 1019
Changement No Significant change
Brut LOWI 220420Z VRB02KT 9999 FEW080 13/10 Q1019 NOSIG

VFR

13°C / 10°C

[Plus]
Vent 140º variable 100º to 160º 3kt
Visibilité >10km
Météo -
Nuages Few Clouds 8000ft
Pression 1019
Changement No Significant change
Brut LOWI 220350Z 14003KT 100V160 9999 FEW080 13/10 Q1019 NOSIG

VFR

13°C / 10°C

[Plus]
Vent 100º 2kt
Visibilité >10km
Météo -
Nuages Few Clouds 8000ft
Broken Clouds 9000ft
Pression 1019
Changement -
Brut LOWI 220320Z AUTO 10002KT 9999 FEW080 BKN090 13/10 Q1019

VFR

13°C / 10°C

[Plus]
Vent 110º 3kt
Visibilité >10km
Météo -
Nuages Few Clouds 8000ft
Pression 1018
Changement -
Brut LOWI 220250Z AUTO 11003KT 9999 FEW080 13/10 Q1018

VFR

13°C / 10°C

[Plus]
Vent variable 1kt
Visibilité >10km
Météo -
Nuages Few Clouds 8000ft
Pression 1019
Changement -
Brut LOWI 220220Z AUTO VRB01KT 9999 FEW080 13/10 Q1019

VFR

14°C / 11°C

[Plus]
Vent variable 2kt
Visibilité >10km
Météo -
Nuages Few Clouds 8000ft
Pression 1019
Changement -
Brut LOWI 220150Z AUTO VRB02KT 9999 FEW080 14/11 Q1019

TAF pour Innsbruck (LOWI)

From till


Maximum Temperature 27ºC on . Minimum Temperature 15ºC on .
From till Wind 80º 8kt. Visibility 10km or more. Scattered Clouds 8000ft.
With 40% probability, Temporarly from till Wind variable 12kt. Gust 25kt. Thunderstorm Rain . Scattered Clouds 7000ft.
Becoming from till Wind variable 3kt. Visibility 10km or more. Scattered Clouds 8000ft.

Brut: TAF LOWI 221115Z 2212/2312 08008KT 9999 SCT080 TX27/2213Z TN15/2304Z PROB40 TEMPO 2216/2220 VRB12G25KT TSRA SCT070CB BECMG 2220/2222 VRB03KT

Radar pour Innsbruck

Bruine
Légère
Modéré
Fort
Très fort
Grêle

Le marqueur est placé sur Innsbruck. Cette animation montre le Radar des précipitations pour les dernières heures, ainsi qu'une 2h prévision. La bruine ou les légères chutes de neiges peuvent ne pas être détectées par le radar. L'intensité des précipitations est visible avec un code couleur allant du bleu clair au violet foncé et orange.
Copyright 2022 Deutscher Wetterdienst / meteoblue.

Les images satellites et les pluies actuelles pour Innsbruck, Autriche

Le marqueur est placé sur Innsbruck. [Plus]

L'image satellite en temps réel combine la lumière visible pendant la journée et le rayonnement infrarouge pendant la nuit. La nuit, l'image n'est pas sombre car le rayonnement infrarouge permet de détecter les différences de température. Malheureusement, les nuages bas et le brouillard sont difficiles à distinguer des températures au sol et peuvent donc être presque invisibles pendant la nuit. Les images des satellites Météosat pour l'Europe sont mises à jour en temps réel toutes les 5 minutes. Les images GOES-16/GOES-17 (Amérique du Nord et du Sud) et Himawari (Asie) sont mises à jour toutes les 10 minutes.

La précipitation est estimée à partir des radars et des satellites. Les calculs des précipitations par le satellite sont moins précises pour la nuit que pour le jour. Les croix oranges marquent les lieux où la foudre a été détectée (sur Europe).

Copyright 2022 EUMETSAT / meteoblue. Données de foudre fournies par nowcast.

Retour vers le haut